RH
52 51 47 48 49 43 39 34 31 31 30 30 32 31 31 30 28 28 28 27 27 28 27 25 22 23 25 21 14 11 11 12 12 12 12 12 12 10 9 9 12 12 11 13 14 19 22
58 50 49 49 46 41 37 33 33 33 32 32 33 32 33 32 31 33 33 30 28 26 26 29 31 31 30 22 19 20 20 19 16 12 11 14 14 12 12 12 16 13 12 13 12 14 17
54 53 51 46 43 42 42 38 36 35 35 35 35 35 34 34 34 38 35 32 29 29 23 23 27 29 28 20 20 22 23 20 17 13 12 12 12 13 15 16 18 19 16 14 14 13 14
55 52 48 46 44 41 40 40 40 39 37 37 38 37 38 35 35 39 37 34 33 31 23 21 22 24 27 25 25 24 22 18 17 16 15 15 17 18 20 22 24 23 19 14 13 12 15
52 50 48 46 43 42 44 45 44 43 42 42 41 41 40 40 40 40 36 34 30 30 24 21 22 23 24 22 23 22 21 19 18 18 19 19 24 26 27 27 27 25 18 16 14 15 14
47 50 50 47 47 46 46 47 48 48 46 45 45 46 45 42 40 37 34 30 28 26 26 23 22 21 22 20 18 17 19 21 19 18 20 23 26 27 28 30 27 22 20 19 16 15 15
40 43 50 51 50 48 47 50 50 48 47 49 49 49 47 44 42 40 36 32 30 27 26 26 24 23 23 21 20 18 18 20 21 22 24 25 26 28 30 31 32 29 26 21 18 17 14
36 35 38 47 51 53 50 50 53 53 53 51 54 54 53 50 46 43 39 37 34 34 32 30 28 27 26 23 22 18 20 21 22 23 26 28 29 31 33 34 35 34 28 23 22 19 16
32 31 32 34 41 51 54 52 53 53 54 54 53 52 50 49 45 42 36 31 32 33 36 36 32 32 28 25 25 21 23 23 26 28 29 31 33 34 35 35 37 38 32 24 25 24 22
27 26 28 35 38 39 46 53 54 52 53 53 52 50 49 45 43 39 36 31 26 26 28 34 31 32 30 25 30 30 26 29 33 31 32 32 38 38 37 37 38 39 32 25 26 28 27
27 27 28 35 41 41 40 42 48 53 52 51 51 50 48 44 43 40 38 35 29 25 26 26 30 27 23 25 29 29 29 30 34 34 36 37 42 44 38 39 39 38 37 36 38 36 33
28 28 30 34 38 41 39 39 39 40 47 53 50 49 50 48 44 42 40 37 33 30 28 26 24 22 23 24 28 29 28 30 32 38 43 46 49 48 46 42 41 39 39 38 42 39 35
28 28 29 32 38 38 39 38 37 37 38 44 49 52 54 53 50 44 42 38 34 31 27 25 23 22 21 26 28 29 29 29 29 38 47 54 54 53 53 54 48 46 38 38 44 39 41
31 31 28 34 37 37 36 36 38 38 37 36 43 49 51 50 49 47 43 37 33 32 29 26 24 22 23 24 29 28 26 25 32 40 51 56 60 58 59 60 59 50 38 40 48 44 44
34 34 31 30 39 37 39 39 32 30 34 37 37 43 49 50 50 48 44 37 35 30 26 26 25 25 27 30 26 25 29 35 41 48 57 59 62 65 66 65 64 53 40 48 49 51 44
31 34 35 32 36 39 40 39 34 30 31 35 39 41 46 47 48 46 41 37 32 28 27 28 28 30 29 25 26 32 44 50 53 56 60 61 59 68 69 69 67 64 52 46 54 57 54
28 32 34 33 32 38 41 38 36 33 33 34 38 41 42 45 43 41 38 34 28 29 32 32 31 25 24 31 44 54 58 59 58 53 53 55 56 73 73 72 73 72 68 49 52 60 67
28 31 34 34 32 38 41 41 40 39 40 40 40 41 39 38 40 38 34 32 33 36 36 33 24 29 42 49 55 61 59 54 55 55 54 52 45 58 75 83 78 76 59 44 45 57 68
28 31 34 34 36 40 43 43 44 52 48 44 43 45 43 40 38 36 36 40 42 39 32 27 39 51 55 58 55 56 52 49 47 54 47 38 38 41 56 67 72 80 80 60 52 65 76
37 35 38 38 43 46 46 48 51 54 58 54 52 49 49 48 47 46 45 43 35 29 38 53 60 60 60 60 51 41 40 34 43 56 55 46 42 52 78 87 97 93 89 83 76 79 71
47 46 45 52 52 55 57 64 67 70 73 66 58 57 56 52 52 45 38 30 31 46 62 64 61 62 53 42 38 43 44 41 35 46 63 57 47 52 61 72 89 87 94 96 92 98 79
96 85 73 65 59 59 67 77 79 80 72 70 66 61 55 47 37 32 34 44 55 60 62 66 63 57 53 50 48 47 43 42 38 46 54 50 60 55 57 76 75 71 89 90 99 100 97
92 92 81 86 87 74 74 82 79 75 72 65 60 46 37 40 52 60 67 71 79 77 74 73 68 65 59 54 50 42 43 41 44 59 66 52 62 63 55 67 65 66 77 81 87 100 100
96 90 89 97 94 95 87 87 69 53 49 48 52 58 63 54 63 74 82 86 93 93 85 77 70 64 60 58 54 49 49 46 47 62 72 72 70 72 66 66 57 73 79 90 97 92 90
97 92 89 94 93 95 84 63 60 63 53 60 86 82 78 64 65 82 90 90 91 95 88 77 69 66 67 70 65 54 51 49 49 45 63 81 70 82 80 75 62 65 80 86 88 78 89
90 72 90 100 89 91 96 85 78 84 92 87 98 97 98 92 87 92 92 98 100 98 95 81 72 75 80 84 77 67 62 58 55 51 63 66 74 74 88 89 69 74 84 88 87 80 84
70 88 99 100 100 100 96 94 93 88 93 92 96 100 97 82 87 96 92 89 94 98 93 92 82 74 78 86 85 76 68 67 62 60 60 68 69 79 86 95 73 80 84 89 88 77 74
88 91 94 100 97 100 97 98 96 97 95 97 97 99 96 84 84 93 98 92 96 95 95 89 84 78 86 97 85 78 70 68 59 61 69 71 82 79 78 85 84 82 92 92 88 86 83
86 97 97 88 87 95 100 97 99 100 99 97 94 100 99 92 70 89 87 91 95 92 90 87 81 80 100 96 85 86 82 72 65 55 66 78 86 89 88 89 93 89 99 94 85 78 70
Wind_Speed
13 13 13 14 15 15 16 16 16 16 16 15 15 16 17 19 20 21 22 22 20 20 18 17 16 16 18 21 22 21 21 22 22 20 20 20 20 21 21 22 22 21 22 21 20 18 19
14 13 13 13 13 14 14 15 14 14 14 13 13 13 14 17 19 19 20 21 22 23 20 18 17 16 17 19 21 22 23 24 23 21 20 20 22 23 24 22 24 22 22 23 20 19 18
13 13 12 12 12 12 12 12 12 12 12 13 12 12 12 14 15 18 19 20 21 24 24 21 19 18 18 19 19 21 24 24 24 23 22 22 24 25 25 25 27 26 24 24 22 18 19
11 12 12 12 11 10 9 10 10 11 10 10 11 11 11 12 14 16 18 19 19 21 22 23 22 22 21 21 22 24 24 23 23 24 24 24 25 26 26 27 29 28 26 24 21 23 19
9 9 11 11 10 9 8 8 8 8 9 10 9 10 10 11 12 15 17 17 18 19 20 20 22 23 24 24 25 25 25 23 24 24 25 25 28 30 28 27 28 28 27 26 27 21 17
6 7 8 9 9 9 7 6 6 6 5 5 7 8 9 9 12 15 16 16 17 18 18 19 20 22 23 24 25 25 25 25 25 25 28 28 31 32 31 28 27 26 27 28 28 24 21
5 4 4 5 6 7 7 6 4 3 3 4 6 7 8 9 12 14 14 15 15 17 18 18 19 21 23 23 24 25 26 27 27 28 28 30 32 31 29 28 29 28 29 28 27 25 25
4 3 2 2 1 3 5 5 4 3 2 3 4 6 8 10 12 14 14 15 16 16 17 18 19 20 22 23 24 26 28 28 29 29 31 31 32 33 31 30 31 29 29 28 28 25 24
7 5 4 3 3 4 1 2 3 2 2 2 3 5 7 8 9 11 14 14 15 16 16 17 19 20 23 24 25 27 29 30 30 30 32 34 35 36 34 32 33 31 30 26 27 26 25
10 9 7 6 7 7 7 6 4 3 4 4 5 5 7 9 11 13 14 15 16 17 17 18 20 21 23 24 25 28 30 31 31 31 32 34 36 36 36 36 34 33 30 27 27 28 26
12 11 10 9 8 9 10 11 12 10 9 8 7 7 8 10 13 15 16 17 17 18 19 20 21 23 24 26 27 29 31 33 33 32 33 36 38 37 36 37 37 34 32 30 30 29 26
15 14 13 12 11 10 10 12 13 15 14 14 12 12 12 13 14 16 18 19 19 20 20 21 23 24 25 27 28 30 31 33 33 33 35 36 38 38 38 38 39 37 34 34 36 31 27
20 17 16 15 13 13 13 13 14 15 16 18 17 17 16 16 17 18 20 20 21 21 22 23 24 26 28 29 31 32 33 35 33 35 36 38 37 38 38 39 38 40 36 37 35 34 33
22 20 19 17 16 16 15 15 16 17 17 19 22 21 20 20 21 22 21 22 22 23 23 24 26 28 30 31 32 33 35 35 36 37 38 39 40 41 40 40 40 37 36 35 36 35 35
27 24 22 21 20 20 18 18 18 19 20 20 21 24 24 23 23 24 24 23 23 24 25 25 27 30 30 32 33 34 34 34 37 37 39 43 42 43 42 39 37 37 35 36 37 36 34
30 28 25 24 23 22 22 21 21 21 22 21 21 23 24 24 24 24 25 25 25 25 26 27 29 31 34 34 34 34 35 38 39 40 42 47 45 43 42 41 35 35 35 36 34 37 36
34 32 29 28 27 27 25 25 25 24 23 23 22 24 24 24 24 25 25 25 26 27 28 30 32 33 32 32 32 34 38 38 39 41 45 48 48 44 45 42 37 34 35 33 33 34 35
36 35 34 33 32 31 30 28 28 27 27 26 25 25 27 27 26 26 26 27 27 29 30 32 32 30 31 34 37 37 38 40 44 46 49 51 51 48 44 41 40 35 32 32 34 34 37
41 40 39 37 36 34 33 32 30 30 30 29 28 27 29 30 29 28 29 30 30 31 31 29 29 31 34 36 38 38 42 44 47 47 49 52 52 51 47 45 45 37 35 31 35 36 37
47 46 43 40 39 38 36 35 35 33 34 34 33 32 32 32 33 32 32 32 33 31 28 29 32 35 35 36 38 40 44 47 47 45 48 52 50 49 44 44 41 37 33 36 39 37 41
51 49 46 42 43 40 39 39 38 38 37 38 38 36 35 36 35 36 35 34 31 30 31 34 35 37 39 40 43 45 48 49 50 48 48 49 50 50 45 42 40 38 35 35 37 37 43
47 49 46 44 45 44 43 42 42 42 41 41 41 39 39 37 37 36 34 33 34 36 39 38 39 41 43 44 47 49 51 50 50 51 49 51 47 47 43 39 43 39 34 36 36 38 43
47 47 49 50 49 48 47 46 45 45 44 43 42 42 41 37 35 36 37 37 38 40 39 40 43 44 45 47 48 49 50 50 50 48 50 48 45 47 46 44 47 42 44 41 43 45 47
42 42 46 47 49 50 50 48 46 46 47 44 42 42 42 42 40 40 40 40 41 41 43 44 44 48 49 51 49 52 52 52 52 48 48 48 49 51 50 45 47 45 44 45 46 48 49
50 50 51 48 51 52 52 48 45 46 48 45 44 46 47 48 48 44 44 45 46 45 47 48 50 51 53 53 54 56 55 56 53 52 46 48 49 50 49 48 49 45 46 48 50 51 54
54 56 55 57 56 57 56 53 54 51 51 51 50 51 51 51 50 48 49 50 51 50 50 51 51 53 54 55 57 58 57 56 56 50 45 45 47 48 48 50 52 49 50 52 53 56 59
55 56 58 60 61 62 60 60 57 57 57 57 58 56 56 58 54 52 53 56 55 56 56 55 57 60 60 59 59 58 55 52 53 47 45 46 47 47 49 53 54 53 53 56 58 60 62
58 60 61 64 64 62 63 64 65 64 62 63 63 63 63 63 61 58 57 60 59 60 60 61 61 63 60 62 59 55 52 48 48 47 48 48 50 51 56 59 58 57 58 58 62 61 63
65 67 67 66 67 68 68 68 68 69 69 68 70 64 64 68 69 64 64 62 63 64 63 63 64 64 66 66 60 54 50 47 47 48 48 53 55 58 58 57 57 58 58 60 64 64 66
Wind_Direction
93 91 91 85 85 83 83 89 91 90 90 90 79 81 76 69 64 60 55 53 51 47 42 39 39 35 27 25 25 25 20 14 9 5 2 1 359 357 352 350 349 348 349 344 338 332 331
89 90 89 88 90 85 84 88 91 89 85 86 82 77 69 61 61 56 50 45 45 44 41 36 31 26 22 27 27 25 19 10 3 356 355 355 355 355 352 352 352 345 344 345 338 330 331
89 90 89 88 89 89 88 85 88 90 85 84 79 67 62 60 54 43 42 44 40 36 38 35 35 31 28 25 19 13 7 4 3 0 357 354 353 354 353 348 348 347 343 343 336 337 335
96 94 92 94 94 92 91 85 82 87 85 78 74 71 67 58 44 36 36 39 35 34 35 36 36 35 28 20 14 9 8 6 3 3 1 358 355 352 347 345 345 343 338 340 347 338 336
104 100 94 91 91 91 92 90 90 86 82 79 69 64 57 50 41 33 30 34 31 33 34 36 34 34 28 23 20 15 11 7 3 2 358 355 352 350 347 342 346 348 345 345 343 339 345
125 112 101 90 82 81 87 96 98 109 102 69 57 54 51 46 31 29 31 34 31 27 28 28 26 24 18 18 16 10 6 4 2 0 357 352 349 347 350 350 348 347 345 342 342 344 345
136 127 118 100 86 75 72 78 89 100 82 44 34 34 40 31 27 26 27 19 18 17 16 16 12 11 10 8 6 4 359 359 359 356 354 352 350 350 350 349 348 346 343 342 342 345 343
180 165 165 170 137 63 61 62 71 77 65 42 30 28 16 10 9 15 15 13 6 4 4 2 2 359 359 357 356 355 355 353 354 353 353 352 349 351 348 345 345 344 343 343 342 344 344
217 220 226 243 244 248 281 24 31 43 30 32 20 15 15 5 0 357 3 3 355 352 353 349 351 350 349 348 348 347 347 347 348 349 351 350 348 348 347 344 341 341 341 342 341 344 343
232 239 244 260 269 265 257 251 261 272 274 286 308 330 344 349 344 346 347 349 350 348 346 342 342 342 343 343 340 341 341 343 342 346 348 346 345 345 343 342 341 339 340 340 340 341 340
239 245 252 258 264 270 264 259 255 261 270 280 292 306 320 331 334 335 337 338 341 339 339 337 337 339 338 338 338 336 338 340 341 342 344 343 341 341 339 338 339 337 335 337 336 334 336
242 247 252 258 262 268 270 263 261 260 264 272 278 288 302 312 319 323 325 329 331 331 332 330 332 333 333 332 332 333 335 337 339 340 341 339 338 337 336 335 336 333 330 328 333 334 334
241 246 249 250 256 260 264 268 268 267 264 263 270 277 286 296 305 311 316 321 322 323 323 324 326 327 327 327 328 331 333 333 335 335 337 338 336 333 334 333 332 329 328 327 332 331 336
246 250 252 252 253 255 261 263 268 271 272 268 264 269 277 286 295 302 308 313 313 315 317 318 319 320 322 323 324 327 330 332 331 331 331 335 336 331 331 330 329 327 323 326 328 327 330
250 251 254 256 256 259 260 263 268 270 272 272 269 267 272 279 287 296 302 304 306 308 310 312 314 317 317 318 322 326 328 329 327 327 328 331 333 329 328 326 327 326 320 320 322 322 324
252 253 256 258 259 261 266 267 268 269 271 272 273 270 270 274 281 288 294 300 303 305 307 309 313 315 317 321 323 325 327 326 325 325 325 327 329 327 325 324 324 321 316 315 319 323 323
252 251 254 258 259 261 264 267 267 266 266 269 271 273 275 277 282 287 291 293 296 300 304 308 311 314 316 318 320 322 322 323 323 324 324 325 326 327 324 324 319 321 310 308 310 317 320
253 252 254 259 261 263 266 265 266 265 265 266 268 273 276 278 279 282 284 288 291 296 302 307 310 312 314 315 317 320 321 322 322 324 324 324 324 325 322 319 316 320 310 307 307 312 319
252 252 254 257 260 262 265 267 265 264 266 267 269 272 275 276 277 279 281 285 290 296 300 304 306 307 310 312 315 320 321 322 322 324 325 325 324 321 321 317 316 317 314 305 302 305 313
249 250 250 253 256 259 262 264 264 262 264 265 266 267 270 273 277 279 282 287 290 292 295 299 301 303 306 310 314 320 322 324 323 323 324 324 324 319 320 315 312 314 307 300 300 306 304
249 249 251 251 253 255 259 259 261 262 264 266 267 269 271 274 276 280 283 286 286 289 293 296 299 301 305 309 312 317 321 324 324 323 323 325 325 319 319 316 309 308 304 297 299 299 302
249 249 251 253 256 257 257 259 260 260 262 266 268 269 271 274 279 280 281 283 287 290 296 296 296 300 303 309 311 317 320 321 322 322 320 321 323 320 319 314 309 314 307 303 304 307 307
244 246 249 253 255 256 256 257 259 261 261 263 265 266 266 268 270 276 280 283 286 289 289 291 294 298 305 307 313 316 319 320 318 318 317 320 322 321 322 316 310 314 311 310 309 306 308
244 251 254 254 253 255 255 256 257 260 261 262 263 263 265 268 273 276 279 281 284 286 289 290 295 298 304 306 311 313 316 316 315 313 312 313 317 317 316 312 311 310 310 308 307 304 305
248 258 254 253 255 252 254 253 254 260 261 259 260 264 268 271 273 278 279 281 284 286 289 292 294 298 302 307 309 310 312 312 312 313 315 314 317 313 312 312 312 310 306 306 305 303 304
252 253 253 252 251 252 255 252 254 254 257 260 263 266 270 273 275 278 278 281 284 287 287 290 292 295 298 304 307 309 311 311 310 311 312 311 312 312 312 308 310 310 305 302 299 301 304
253 247 249 250 249 250 254 251 252 254 258 260 264 268 270 271 274 277 278 280 284 286 289 291 292 294 296 301 305 305 307 306 308 307 311 310 311 312 311 305 310 307 304 301 301 304 304
248 246 247 250 251 252 254 254 254 256 261 265 263 264 268 270 270 272 277 279 282 285 288 291 293 294 294 298 300 301 301 306 308 307 310 311 312 314 312 308 309 308 302 301 300 301 299
252 250 252 250 249 251 254 255 256 259 262 265 264 264 268 269 269 273 274 279 283 284 288 290 294 296 293 296 296 298 294 304 308 308 309 313 312 309 310 307 304 302 299 298 297 300 300